Regional Weather Roundup
Issued by NWS

Home | Current Version | Previous Version | Text Only | Print | Product List | Glossary On
Versions: 1 2 3 4 5 6 7 8 9 10 11 12 13 14 15 16 17 18 19 20 21 22 23 24 25 26 27 28 29 30 31 32 33 34 35 36 37 38 39 40 41 42 43 44 45 46 47 48 49 50
000
ASUS44 KBMX 040610
RWRAL

ALABAMA REGIONAL WEATHER ROUNDUP
NATIONAL WEATHER SERVICE BIRMINGHAM AL
1200 AM CST SUN DEC 04 2016

NOTE: "FAIR" INDICATES FEW OR NO CLOUDS BELOW 12,000 FEET
WITH NO SIGNIFICANT WEATHER AND/OR OBSTRUCTIONS TO VISIBILITY.

THE REMARK "TC" DENOTES TEMPERATURE IN DEGREES CELSIUS.

ALZ001>011-014-016>018-020-040700-
NORTH ALABAMA

CITY           SKY/WX    TMP DP  RH WIND       PRES   REMARKS
MUSCLE SHOALS  LGT RAIN  43  40  89 E9        30.16F
6HR MIN TEMP:  42; 6HR MAX TEMP:  44; 6HR PCP:  0.17;

HUNTSVILLE     RAIN      44  43  96 E8        30.16F FOG
6HR MIN TEMP:  44; 6HR MAX TEMP:  46; 6HR PCP:  0.15;

DECATUR        RAIN      42  42 100 NE3       30.17F FOG
6HR MIN TEMP:  42; 6HR MAX TEMP:  44; 6HR PCP:  0.17;

HALEYVILLE     LGT RAIN  42  41  96 E6        30.15F
6HR MIN TEMP:  41; 6HR MAX TEMP:  42; 6HR PCP:  0.47;

GADSDEN        LGT RAIN  44  42  93 NE10      30.16F
6HR MIN TEMP:  43; 6HR MAX TEMP:  45; 6HR PCP:  0.11;

$$

ALZ012-013-022-023-030>036-040>044-040700-
WEST CENTRAL ALABAMA

CITY           SKY/WX    TMP DP  RH WIND       PRES   REMARKS
TUSCALOOSA     CLOUDY    47  43  86 NE8       30.10F
6HR MIN TEMP:  45; 6HR MAX TEMP:  47; 6HR PCP:  0.03;

$$

ALZ015-024>027-033>036-040>044-040700-
CENTRAL ALABAMA

CITY           SKY/WX    TMP DP  RH WIND       PRES   REMARKS
BIRMINGHAM     CLOUDY    45  42  89 NE6       30.14F
6HR MIN TEMP:  44; 6HR MAX TEMP:  45; 6HR PCP:  0.04;

MONTGOMERY     CLOUDY    53  36  52 E7        30.08F
6HR MIN TEMP:  51; 6HR MAX TEMP:  53;

SHELBY CO ARPT CLOUDY    45  44  97 VRB6      30.10F
6HR MIN TEMP:  44; 6HR MAX TEMP:  46; 6HR PCP:  0.05;

MAXWELL AFB    CLOUDY    52  39  60 E8        30.07F
6HR MIN TEMP:  49; 6HR MAX TEMP:  52;

GREENVILLE     FAIR      55  33  43 SE8       30.05F
6HR MIN TEMP:  53; 6HR MAX TEMP:  55;

$$

ALZ019-021-028-029-037-038-045>048-040700-
EAST CENTRAL ALABAMA

CITY           SKY/WX    TMP DP  RH WIND       PRES   REMARKS
ANNISTON       CLOUDY    46  43  89 NE6       30.16R
6HR MIN TEMP:  44; 6HR MAX TEMP:  46; 6HR PCP:  0.06;

ALEXANDER CITY CLOUDY    50  46  88 CALM      30.10S
6HR MIN TEMP:  50; 6HR MAX TEMP:  50; 6HR PCP:  0.03;

AUBURN         CLOUDY    49  39  68 E9        30.10F
6HR MIN TEMP:  46; 6HR MAX TEMP:  49; 6HR PCP: TRACE;

$$

ALZ051>064-040700-
SOUTHWEST ALABAMA

CITY           SKY/WX    TMP DP  RH WIND       PRES   REMARKS
MOBILE         CLOUDY    59  38  45 SE14      30.01F
6HR MIN TEMP:  58; 6HR MAX TEMP:  59;

BROOKLEY FIELD CLOUDY    62  41  46 SE16      30.03F
6HR MIN TEMP:  61; 6HR MAX TEMP:  62;

EVERGREEN      CLOUDY    55  34  45 SE12      30.04F
6HR MIN TEMP:  54; 6HR MAX TEMP:  56;

$$

ALZ049-050-065>069-040700-
SOUTHEAST ALABAMA

CITY           SKY/WX    TMP DP  RH WIND       PRES   REMARKS
DOTHAN         CLOUDY    54  39  57 E8        30.12F
6HR MIN TEMP:  54; 6HR MAX TEMP:  57;

OZARK          CLOUDY    56  37  48 E7        30.08F
6HR MIN TEMP:  55; 6HR MAX TEMP:  58;

TROY           CLOUDY    54  36  50 SE10      30.08F
6HR MIN TEMP:  52; 6HR MAX TEMP:  54;

EUFAULA        CLOUDY    56  38  50 E5        30.10F
6HR MIN TEMP:  54; 6HR MAX TEMP:  57;

$$



USA.gov is the U.S. government's official web portal to all federal, state and local government web resources and services.